Mit dem Auto

Kostenlose Parkplätze sind vorhanden und ausgeschildert.

 

Mit dem Flugzeug

Der Sonderlandeplatz Donzdorf EDPM liegt an der Nordwestkante der Schwäbischen Alb, direkt oberhalb der Stadt Donzdorf.

Keine Landegebühr an den Flugtagen!

  • Lage: 48° 40,72 N, 09° 50,75 E; 1,5nm ESE von Donzdorf
    080°/24nm from TGO VORTAC 112.500
    208°/32nm from DKB DVORTAC 117.800
  • Elevation: 2272 ft, 693 m
  • Bahn: 09/27, 600m x 10m, Asphalt
  • Platzrunde: Süd, 3100 ft (Segelflug: Nord)
  • Funk: Donzdorf Info 118.205
  • FIS: Langen Information 128.950
  • ATIS: Stuttgart ATIS 126.125
  • Tel: C: 07162/23303
  • AIS: Frankfurt Tel. 069/78072511, 01803/337247, Fax 069/78072515
  • AIS: München Tel. 069/78072512, Fax 069/78072515
  • MET: 0900/1077227
  • Sprit: –
  • Zoll: –
  • UL-Zulassung: Ja

Weitere Informationen sind auf der Website der Fliegergruppe Donzdorf zu finden.

Stuttgart EDDS
STUTTGART/ECHTER
Metar
EDDS 191320Z 36007KT 260V060 9999 FEW032CB SCT035 19/10 Q1003 NOSIG

13:20 UTC

Wind: 360° 7kt

Visibility: 9999 m

Sky: FEW 3200 ft

Temp: 19 deg C / 66.2 deg F

Dewpoint: 10 deg C / 50 deg F

Pressure: 1003 hPa

TAF
TAF EDDS 191100Z 1912/2012 30008KT 9999 BKN020 TEMPO 1914/1918 13015G30KT 4000 TSRA BKN030CB PROB30 TEMPO 1918/1924 2000 TSRA BKN010 BKN020CB TEMPO 2003/2009 4000 -DZRA BKN006 TEMPO 2010/2012 4000 SHRA BKN015CB